Find Sphinx

NORAD ID: 63232 Int'l Des: 2025-052 Owner: VESTGO/ADIG Country: US operational
LEOCIRCULARRETROGRADESSO

实时位置

正在加载3D地球...

关于 Sphinx

正在加载描述...

即将过境

Passes for default location (London). Set your location on the main map for personalized predictions.

高度历史

Loading altitude history...

两行轨道根数

1 63232U 25052Y 26120.25839809 .00006929 00000-0 29421-3 0 9992
2 63232 97.4012 13.9340 0004818 335.4757 24.6250 15.23380295 62573
Epoch: Apr 30, 2026 • Age: 9 hours

当前状态

高度 522.6 km
速度 7.60 km/s
星下点 -79.41°S, 63.54°E
发射日期 Mar 15, 2025
运行时间 1.1 years
类型 other

技术详情

分类 Payload
质量 32.00 kg
干质量 32.00 kg
总质量 32.00 kg
长度 0.80 m
直径 0.40 m
跨度 0.40 m
形状 Box
制造商 ADIG
平台类型 Corvus-Micro
阶段状态 In Orbit
所有者/国家 VESTGO/ADIG/US

Most Searched